This demonstration page uses our WeatherBlox Daily Observations layout. Learn more.

Left ArrowRight Arrow

36.19886, -115.1175

Hourly Observations for September 21, 2020

Temp ( °F °C ) Dew Point ( °F °C ) Humidity (%) Winds ( mph kmh ) Pressure ( in mb ) Visibility ( mi km ) Precip ( " mm )
12:53 am 00:53 Clear 82 27.8 41 5 23 23 WNW 6 9 29.84 1010 10 16.0934 0 0
1:53 am 01:53 Clear 78 25.6 38 3.3 24 24 Calm 29.84 1011 10 16.0934 0 0
2:53 am 02:53 Clear 79 26.1 39 3.9 24 24 NW 3 6 29.83 1010 10 16.0934 0 0
3:53 am 03:53 Clear 77 25 37 2.8 24 24 NNW 5 7 29.85 1011 10 16.0934 0 0
4:53 am 04:53 Clear 77 25 38 3.3 24 24 WNW 5 7 29.86 1011 10 16.0934 0 0
5:53 am 05:53 Clear 75 23.9 38 3.3 26 26 WNW 6 9 29.89 1012 10 16.0934 0 0
6:53 am 06:53 Sunny 74 23.3 39 3.9 28 28 NW 7 11 29.91 1013 10 16.0934 0 0
7:53 am 07:53 Sunny 79 26.1 41 5 26 26 NW 3 6 29.92 1013 10 16.0934 0 0
8:53 am 08:53 Sunny 85 29.4 40 4.4 20 20 Calm 29.93 1014 10 16.0934 0 0
9:53 am 09:53 Sunny 89 31.7 39 3.9 17 17 E 3 6 29.94 1014 10 16.0934 0 0
10:53 am 10:53 Sunny 92 33.3 39 3.9 16 16 E 7 11 29.93 1014 10 16.0934 0 0
11:53 am 11:53 Sunny 95 35 40 4.4 15 15 VRB 5 7 29.91 1013 10 16.0934 0 0
12:53 pm 12:53 Sunny 99 37.2 41 5 14 14 ESE 7 11 29.88 1012 10 16.0934 0 0
1:45 pm 13:45 Sunny 100 37.8 37 2.8 11 11 S 14 22 29.67 1005 10 16.0934 0 0
1:53 pm 13:53 Sunny 101 38.3 38 3.3 11 11 S 14 22 29.84 1011 10 16.0934 0 0
2:53 pm 14:53 Sunny with Light Rain 99 37.2 42 5.6 14 14 SE 22 35 29.82 1010 10 16.0934 0.001 0.001
3:53 pm 15:53 Sunny 99 37.2 42 5.6 14 14 SSE 17 28 29.8 1009 10 16.0934 0.001 0.001
4:53 pm 16:53 Sunny 98 36.7 42 5.6 15 15 SSE 16 26 29.8 1009 10 16.0934 0 0
5:53 pm 17:53 Sunny 96 35.6 43 6.1 16 16 SSE 20 31 29.8 1009 10 16.0934 0 0
6:53 pm 18:53 Clear 94 34.4 43 6.1 17 17 S 14 22 29.82 1010 10 16.0934 0 0
7:53 pm 19:53 Clear 93 33.9 43 6.1 18 18 S 8 13 29.83 1010 10 16.0934 0 0
8:53 pm 20:53 Clear 91 32.8 44 6.7 20 20 SSE 6 9 29.85 1011 10 16.0934 0 0
9:53 pm 21:53 Clear 88 31.1 45 7.2 22 22 Calm 29.86 1011 10 16.0934 0 0
10:53 pm 22:53 Clear 86 30 45 7.2 24 24 WNW 5 7 29.87 1012 10 16.0934 0 0
11:53 pm 23:53 Clear 82 27.8 45 7.2 27 27 WNW 6 9 29.87 1011 10 16.0934 0 0

Powered by AerisWeather